St. Joseph, KS

1:51 PM CST on December 16, 2017 (GMT -0600)
Rosecrans Memorial

Weather History for KSTJ - February, 2014

Change the Weather History Date:

Friday, February 14, 2014

  Actual Average Record
Temperature  
Mean Temperature 23 °F 32 °F  
Max Temperature 35 °F 42 °F 75 °F (1954)
Min Temperature 10 °F 21 °F -10 °F (1936)
Degree Days  
Heating Degree Days 42 33  
Month to date heating degree days 737 488  
Since 1 July heating degree days 4479 3871  
Cooling Degree Days 0 0  
Month to date cooling degree days 0 0  
Year to date cooling degree days 0 0  
Moisture  
Dew Point 19 °F    
Average Humidity 80    
Maximum Humidity 92    
Minimum Humidity 68    
Precipitation  
Precipitation T in 0.03 in 0.70 in (1908)
Month to date precipitation 0.15 0.43  
Year to date precipitation 0.23 0.99  
Sea Level Pressure  
Sea Level Pressure 29.93 in    
Wind  
Wind Speed 12 mph (North)    
Max Wind Speed 25 mph    
Max Gust Speed 30 mph    
Visibility 10 miles    
Events      
T = Trace of Precipitation, MM = Missing Value Source: NWS Daily Summary

Daily Weather History Graph

Daily Weather History Graph

Search for Another Location

Airport or City:

Trip Planner

Search our weather history database for the weather conditions in past years. The results will help you decide how hot, cold, wet, or windy it might be!

Date:

Astronomy

Feb. 14, 2014 Rise Set
Actual Time 7:13 AM CST 5:54 PM CST
Civil Twilight 6:45 AM CST 6:22 PM CST
Nautical Twilight 6:14 AM CST 6:54 PM CST
Astronomical Twilight 5:42 AM CST 7:25 PM CST
Moon 5:59 PM CST (2/14) 6:40 AM CST (2/14)
Length of Visible Light 11h 36m
Length of Day
10h 41m
Full, 100% of the Moon is Illuminated
Feb 14
Full
Feb 14
Full
Feb 22
Last Quarter
Mar 1
New
Mar 8
First Quarter

Hourly Weather History & Observations

Time (CST) Temp. Windchill Dew Point Humidity Pressure Visibility Wind Dir Wind Speed Gust Speed Precip Events Conditions
12:53 AM 27.0 °F 21.6 °F 24.1 °F 89% 29.77 in 9.0 mi WNW 4.6 mph - N/A   Overcast
1:53 AM 34.0 °F 25.5 °F 28.0 °F 79% 29.65 in 10.0 mi ESE 11.5 mph - 0.00 in   Overcast
2:53 AM 33.1 °F 23.0 °F 28.9 °F 85% 29.66 in 9.0 mi North 15.0 mph 23.0 mph N/A   Overcast
3:53 AM 34.0 °F 27.2 °F 28.0 °F 79% 29.60 in 10.0 mi ESE 8.1 mph - N/A   Partly Cloudy
4:53 AM 32.0 °F 23.6 °F 28.0 °F 85% 29.65 in 8.0 mi North 10.4 mph - 0.00 in   Overcast
5:40 AM 30.9 °F 22.8 °F 25.0 °F 79% 29.62 in 10.0 mi NNE 9.2 mph - 0.00 in   Mostly Cloudy
5:53 AM 30.0 °F 22.4 °F 24.1 °F 79% 29.65 in 10.0 mi NNE 8.1 mph - 0.00 in   Partly Cloudy
6:53 AM 28.0 °F 15.7 °F 21.9 °F 78% 29.76 in 10.0 mi NNW 17.3 mph - N/A   Clear
7:45 AM 27.0 °F 12.8 °F 23.0 °F 85% 29.77 in 10.0 mi North 21.9 mph - N/A   Overcast
7:53 AM 27.0 °F 13.2 °F 23.0 °F 85% 29.81 in 10.0 mi North 20.7 mph - N/A   Overcast
8:53 AM 25.0 °F 9.9 °F 19.0 °F 78% 29.87 in 10.0 mi North 23.0 mph - N/A   Overcast
9:53 AM 24.1 °F 9.4 °F 19.0 °F 81% 29.91 in 10.0 mi North 20.7 mph - N/A   Overcast
10:20 AM 24.1 °F 10.1 °F 19.0 °F 81% 29.89 in 10.0 mi North 18.4 mph - N/A   Overcast
10:53 AM 25.0 °F 10.9 °F 18.0 °F 75% 29.96 in 10.0 mi NNW 19.6 mph - N/A   Overcast
11:53 AM 24.1 °F 10.6 °F 17.1 °F 75% 30.01 in 10.0 mi North 17.3 mph - N/A   Overcast
12:42 PM 25.0 °F 12.6 °F 17.1 °F 72% 29.99 in 10.0 mi NNW 15.0 mph - N/A   Overcast
12:53 PM 26.1 °F 12.7 °F 18.0 °F 71% 30.02 in 10.0 mi North 18.4 mph - N/A   Mostly Cloudy
1:16 PM 26.1 °F 12.3 °F 17.1 °F 69% 30.00 in 10.0 mi North 19.6 mph - N/A   Mostly Cloudy
1:53 PM 26.1 °F 13.6 °F 17.1 °F 69% 30.03 in 10.0 mi North 16.1 mph - N/A   Overcast
2:53 PM 27.0 °F 14.7 °F 17.1 °F 66% 30.04 in 10.0 mi NNW 16.1 mph - N/A   Mostly Cloudy
3:53 PM 26.1 °F 13.1 °F 17.1 °F 69% 30.07 in 10.0 mi NNW 17.3 mph - N/A   Mostly Cloudy
4:49 PM 26.6 °F 13.8 °F 17.6 °F 69% 30.06 in 10.0 mi NNW 17.3 mph - N/A   Scattered Clouds
4:53 PM 27.0 °F 13.9 °F 16.0 °F 63% 30.08 in 10.0 mi NNW 18.4 mph - N/A   Partly Cloudy
5:53 PM 24.1 °F 13.7 °F 16.0 °F 71% 30.11 in 10.0 mi NNW 10.4 mph - N/A   Clear
6:53 PM 21.0 °F 13.4 °F 12.9 °F 71% 30.13 in 10.0 mi NW 5.8 mph - N/A   Clear
7:53 PM 18.0 °F - 12.0 °F 78% 30.13 in 10.0 mi Calm Calm - N/A   Clear
8:53 PM 14.0 °F 8.2 °F 10.0 °F 84% 30.15 in 10.0 mi West 3.5 mph - N/A   Clear
9:53 PM 15.1 °F - 9.0 °F 77% 30.17 in 10.0 mi Calm Calm - N/A   Clear
10:53 PM 12.9 °F 5.2 °F 10.0 °F 88% 30.15 in 8.0 mi South 4.6 mph - N/A   Clear
11:53 PM 12.9 °F - 10.0 °F 88% 30.16 in 8.0 mi Calm Calm - N/A   Clear